Location: Unspecified
(0.0000°N, 0.0000°E)
Time: 03:08:19
(UTC+00:00)

ISS - Pass Details

Date: 06 March 2026
Orbit: 417 x 426 km, 51.6° (Epoch: 16 March)

Event Time Altitude Azimuth Distance (km) Brightness Sun altitude
Rises 19:09:26 0° 230° (SW) 2,379 1.0 -14.5°
Reaches altitude 10° 19:11:39 10° 239° (WSW) 1,511 0.1 -15.0°
Maximum altitude 19:14:46 33° 305° (NW) 732 -2.1 -15.8°
Drops below altitude 10° 19:17:51 10° 12° (NNE) 1,503 -1.1 -16.6°
Enters shadow 19:18:01 - 13° (NNE) 1,569 -1.0 -16.6°
